Orbital Elements at Epoch 2459200.5 (2020-Dec-17.0) TDB
Reference: JPL 20 (heliocentric ecliptic J2000)
Element | Value | Uncertainty (1-sigma) | Units |
e | .1460141893055575 | 3.6068e-08 | |
a | 2.548980797746833 | 1.1997e-08 | au |
q | 2.176793433008396 | 9.4833e-08 | au |
i | 7.03578104255119 | 4.5498e-06 | deg |
node | 73.41493027386369 | 3.7109e-05 | deg |
peri | 202.7138048185511 | 4.1657e-05 | deg |
M | 1.724216205194796 | 2.0755e-05 | deg |
tp | 2459193.380696716544 (2020-Dec-09.88069672) | 8.5681e-05 | TDB |
period | 1486.443042538525 4.07 | 1.0494e-05 2.873e-08 | d yr |
n | .2421888963772183 | 1.7098e-09 | deg/d |
Q | 2.92116816248527 | 1.3749e-08 | au |
|
| | Orbit Determination Parameters
Additional Information
|